{"data":{"norad_id":58054,"intl_designator":"2023-158D","name":"STARLINK-30566","alt_names":[],"object_type":"PAYLOAD","status":"ACTIVE","operator":null,"country":"US","launch_date":"2023-10-13","launch_site_code":"AFETR","launch_vehicle":null,"mission":null,"orbit_class":"UNKNOWN","rcs_meters":null,"size_class":null,"mass_kg":null,"dimensions":null,"purposes":["comms"],"wikipedia_slug":null,"has_3d_model":false,"image_url":null,"decayed_at":null,"tle_current":{"epoch":"2026-09-20T08:33:21.974112Z","epoch_age_seconds":150823,"freshness":"FRESH","line1":"1 58054U 23158D   26263.35650433 -.00000542  00000+0 -10153-4 0  9995","line2":"2 58054  43.0071   7.5151 0002525 279.6516  80.4051 15.27571321163347","mean_motion":15.27571321,"eccentricity":0.0002525,"inclination_deg":43.0071,"raan_deg":7.5151,"arg_perigee_deg":279.6516,"mean_anomaly_deg":80.4051,"bstar":-1.0153e-5,"rev_number":16334,"period_min":94.267284296574,"perigee_km":481.34262815969,"apogee_km":484.80754026221,"semimajor_km":6861.212084211,"source":"CELESTRAK","updated_at":"2026-09-21T09:00:33.777521Z"}}}